This demonstration page uses our WeatherBlox Daily Observations layout. Learn more.

Left ArrowRight Arrow

34.16533, -84.80231

Hourly Observations for February 22, 2015

Temp ( °F °C ) Dew Point ( °F °C ) Humidity (%) Winds ( mph kmh ) Pressure ( in mb ) Visibility ( mi km ) Precip ( " mm )
12:11 am 00:11 Cloudy with Rain 42 5.6 40 4.4 92 92 E 7 11 30.15 1021 4 6 0.04 1.02
12:24 am 00:24 Cloudy with Rain 42 5.6 40 4.4 92 92 SE 10 17 30.12 1020 4 6 0.07 1.78
12:53 am 00:53 Cloudy with Light Rain 43 6.1 41 5 93 93 ESE 3 6 30.11 1020 4 6 0.12 3.05
1:53 am 01:53 Cloudy with Light Rain 46 7.8 43 6.1 89 89 SSE 8 13 30.09 1019 7 11 0.07 1.78
2:39 am 02:39 Cloudy with Light Rain 44 6.7 43 6.1 96 96 Calm 30.09 1019 4 6 0.02 0.51
2:53 am 02:53 Cloudy with Light Rain 43 6.1 42 5.6 97 97 Calm 30.08 1019 3 4 0.03 0.76
3:20 am 03:20 Cloudy with Light Rain 43 6.1 42 5.6 97 97 N 5 7 30.09 1019 3 5 0.02 0.51
3:27 am 03:27 Cloudy with Light Rain 44 6.7 42 5.6 93 93 NE 5 7 30.09 1019 3 5 0.02 0.51
3:43 am 03:43 Cloudy with Mist and Fog 44 6.7 43 6.1 96 96 Calm 30.09 1019 5 8 0.02 0.51
3:53 am 03:53 Cloudy with Mist and Fog 44 6.7 42 5.6 93 93 NNE 6 9 30.06 1018 3 5 0.02 0.51
4:53 am 04:53 Cloudy with Mist and Fog 45 7.2 43 6.1 93 93 NE 5 7 30.06 1018 4 6 0.01 0.25
5:53 am 05:53 Cloudy with Mist and Fog 46 7.8 44 6.7 93 93 NNE 5 7 30.10 1019 5 8 0.00 0.00
6:18 am 06:18 Cloudy with Mist and Fog 45 7.2 43 6.1 93 93 E 6 9 30.12 1020 5 8 0.00 0.00
6:53 am 06:53 Cloudy with Mist and Fog 45 7.2 43 6.1 93 93 ESE 7 11 30.10 1019 5 8 0.00 0.00
7:53 am 07:53 Cloudy with Mist and Fog 45 7.2 43 6.1 93 93 ESE 5 7 30.14 1021 3 5 0.00 0.00
8:04 am 08:04 Cloudy with Mist and Fog 45 7.2 43 6.1 93 93 ESE 5 7 30.15 1021 3 5 0.00 0.00
8:53 am 08:53 Cloudy with Mist and Fog 45 7.2 43 6.1 93 93 E 5 7 30.16 1021 3 5 0.00 0.00
9:13 am 09:13 Cloudy with Light Rain 45 7.2 43 6.1 93 93 E 5 7 30.18 1022 3 4 0.00 0.03
9:51 am 09:51 Cloudy with Light Rain 45 7 45 7 100 100 E 5 7 30.18 1022 2 3 0.02 0.51
9:53 am 09:53 Cloudy with Light Rain 45 7.2 44 6.7 97 97 E 6 9 30.16 1022 2 3 0.02 0.51
10:20 am 10:20 Cloudy with Light Rain 46 7.8 44 6.7 93 93 E 5 7 30.18 1022 4 6 0.02 0.51
10:35 am 10:35 Cloudy with Light Rain 46 7.8 44 6.7 93 93 ESE 5 7 30.18 1022 4 6 0.02 0.51
10:53 am 10:53 Cloudy with Mist and Fog 46 7.8 45 7.2 96 96 E 5 7 30.18 1022 5 8 0.03 0.76
11:27 am 11:27 Cloudy with Mist and Fog 48 8.9 46 7.8 93 93 E 5 7 30.18 1022 6 10 0.00 0.00
11:41 am 11:41 Cloudy 48 8.9 46 7.8 93 93 Calm 30.18 1022 7 11 0.00 0.00
11:53 am 11:53 Cloudy 49 9.4 46 7.8 90 90 Calm 30.18 1022 7 11 0.00 0.00
12:24 pm 12:24 Cloudy 49 9.4 46 7.8 90 90 ENE 6 9 30.18 1022 7 11 0.00 0.00
12:53 pm 12:53 Cloudy 50 10 47 8.3 89 89 Calm 30.15 1021 9 14 0.00 0.00
1:10 pm 13:10 Cloudy 50 10 46 7.8 86 86 ESE 3 6 30.15 1021 9 14 0.00 0.00
1:46 pm 13:46 Cloudy 51 10.6 48 8.9 89 89 ESE 5 7 30.15 1021 10 16 0.00 0.00
1:53 pm 13:53 Cloudy 52 11.1 48 8.9 86 86 E 3 6 30.12 1020 10 16 0.00 0.00
2:05 pm 14:05 Cloudy 52 11.1 48 8.9 86 86 Calm 30.15 1021 10 16 0.00 0.00
2:53 pm 14:53 Cloudy 53 11.7 48 8.9 83 83 NNE 5 7 30.13 1020 10 16 0.00 0.00
3:26 pm 15:26 Cloudy with Mist and Fog 52 11.1 49 9.4 89 89 N 3 6 30.15 1021 2 3 0.00 0.00
3:55 pm 15:55 Cloudy with Mist and Fog 52 11.1 50 10 93 93 Calm 30.15 1021 2 3 0.00 0.00
4:05 pm 16:05 Cloudy with Mist and Fog 52 11.1 49 9.4 89 89 NNW 6 9 30.15 1021 2 3 0.00 0.00
4:10 pm 16:10 Cloudy with Light Rain 52 11.1 49 9.4 89 89 N 5 7 30.15 1021 2 2 0.00 0.03
4:22 pm 16:22 Cloudy with Mist and Fog 51 10.6 50 10 96 96 N 3 6 30.15 1021 3 5 0.00 0.03
4:31 pm 16:31 Cloudy with Mist and Fog 52 11.1 49 9.4 89 89 Calm 30.15 1021 4 6 0.00 0.03
4:53 pm 16:53 Cloudy with Mist and Fog 51 10.6 49 9.4 92 92 Calm 30.15 1021 6 10 0.00 0.03
5:30 pm 17:30 Cloudy 51 10.6 48 8.9 89 89 NNW 5 7 30.18 1022 9 14 0.00 0.00
5:53 pm 17:53 Cloudy 50 10 47 8.3 89 89 N 3 6 30.16 1021 10 16 0.00 0.00
6:36 pm 18:36 Cloudy 48 8.9 46 7.8 93 93 N 3 6 30.18 1022 8 13 0.00 0.00
6:53 pm 18:53 Cloudy 48 8.9 45 7.2 89 89 VRB 3 6 30.19 1022 9 14 0.00 0.00
7:53 pm 19:53 Cloudy 46 7.8 43 6.1 89 89 N 7 11 30.20 1023 9 14 0.00 0.00
8:53 pm 20:53 Cloudy 45 7.2 42 5.6 90 90 NNW 3 6 30.22 1023 8 13 0.00 0.00
9:53 pm 21:53 Cloudy 44 6.7 41 5 89 89 VRB 3 6 30.23 1024 10 16 0.00 0.00
10:53 pm 22:53 Cloudy 44 6.7 40 4.4 85 85 N 5 7 30.23 1024 10 16 0.00 0.00
11:53 pm 23:53 Cloudy 42 5.6 39 3.9 89 89 NNW 5 7 30.24 1024 7 11 0.00 0.00

Powered by AerisWeather